[[{"header":{"parameterUnit":"m.s-1","parameterCategory":1,"la1":30.2991,"la2":30.254,"lo1":-89.0895,"lo2":-89.0444,"dy":0.0017,"dx":0.0017,"nx":28,"ny":28,"refTime":"2024-05-02T09:00:00:Z","depth":0,"parameterNumber":2,"parameterNumberName":"U-component_of_WINDS"},"data":[0,0,0,0,0,0,0,0,0,0,0,0,0,0,0,0,0,0,0,0,0,0,0,0,0,0,0,0,0,0,0,0,0,0,0,0,0,0,0,0,0,0,0,0,0,0,0,0,0,0,0,0,0,0,0,0,0,0,-2.6492,-2.6492,0,-2.6562,-2.6563,-2.6564,-2.657,-2.6569,-2.6568,-2.6567,-2.6639,-2.6642,-2.6644,0,0,0,0,0,0,0,0,0,0,0,0,0,-2.6361,-2.6364,-2.6492,-2.6493,-2.6493,-2.6562,-2.6563,-2.6564,-2.657,-2.6569,-2.6568,-2.6567,-2.6638,-2.6641,-2.6645,0,0,0,0,0,0,0,0,0,0,0,0,0,-2.6423,-2.6364,-2.6491,-2.6504,-2.6506,-2.6562,-2.6563,-2.6564,-2.657,-2.6569,-2.6568,-2.6566,-2.6637,-2.6641,-2.6645,-2.6693,0,0,-2.6657,-2.6659,0,0,0,0,0,0,0,0,-2.642,-2.6428,-2.6502,-2.6504,-2.6506,-2.6556,-2.6544,-2.6607,-2.657,-2.6546,-2.6567,-2.6566,-2.6612,-2.6618,-2.6634,-2.6696,-2.6699,-2.6657,-2.666,-2.6662,-2.6663,0,0,0,0,0,0,0,-2.6416,-2.6425,-2.652,-2.6503,-2.6505,-2.6507,-2.6514,-2.6556,-2.6585,-2.6548,-2.6548,-2.6557,-2.6613,-2.663,-2.6636,-2.67,-2.6657,-2.6661,-2.6663,-2.6665,-2.6804,-2.6806,0,0,0,0,0,0,-2.6409,-2.6422,-2.6517,-2.6522,-2.6459,-2.651,-2.6518,-2.6541,-2.6584,-2.659,-2.6558,-2.6557,-2.6624,-2.6631,-2.6638,-2.6697,-2.6662,-2.6665,-2.6668,-2.6803,-2.6805,-2.6806,0,0,0,0,0,0,-2.6406,-2.6417,-2.6515,-2.6472,-2.6484,-2.6513,-2.6539,-2.6543,-2.656,-2.6592,-2.6597,-2.657,-2.6624,-2.6633,-2.6679,-2.6699,-2.6667,-2.6671,-2.6802,-2.6804,-2.6805,-2.6814,0,0,0,0,0,0,-2.6402,-2.6416,-2.6435,-2.6472,-2.6487,-2.6554,-2.654,-2.6545,-2.6567,-2.6566,-2.6604,-2.6609,-2.6623,-2.6673,-2.6683,-2.6704,-2.6674,-2.68,-2.6802,-2.6805,-2.6812,-2.6816,-2.6819,0,0,0,0,0,-2.6398,-2.6434,-2.6436,-2.6447,-2.651,-2.6555,-2.6563,-2.6579,-2.6568,-2.6587,-2.6608,-2.6608,-2.6696,-2.6678,-2.6689,-2.6712,-2.6799,-2.6802,-2.6805,-2.681,-2.6815,-2.6819,0,0,0,0,0,0,-2.6398,-2.6439,-2.6441,-2.6491,-2.652,-2.6556,-2.658,-2.6583,-2.6615,-2.6613,-2.6631,-2.664,-2.6685,-2.6703,-2.6683,-2.676,-2.6746,-2.6751,-2.6746,-2.6751,-2.6755,-2.6749,-2.6677,0,0,0,0,0,-2.6404,-2.6437,-2.6471,-2.6512,-2.6526,-2.6551,-2.6571,-2.658,-2.661,-2.6622,-2.6646,-2.6675,-2.6709,-2.6731,-2.6765,-2.6815,-2.6823,-2.6836,-2.6839,-2.6842,-2.6846,-2.6874,-2.688,-2.6816,-2.6816,-2.6816,0,0,-2.6416,-2.6443,-2.6463,-2.6513,-2.6536,-2.657,-2.6561,-2.6597,-2.6622,-2.6628,-2.6673,-2.6692,-2.6725,-2.6774,-2.6796,-2.679,-2.6866,-2.6846,-2.6848,-2.6851,-2.6878,-2.6884,-2.6889,-2.6818,-2.6818,-2.6817,0,0,-2.6456,-2.648,-2.6516,-2.654,-2.6575,-2.6591,-2.66,-2.6636,-2.6648,-2.6694,-2.6699,-2.6729,-2.6788,-2.6812,-2.6831,-2.6881,-2.6882,-2.6891,-2.691,-2.6937,-2.6942,-2.6946,-2.6963,-2.6969,-2.6895,-2.6895,-2.6895,0,-2.6467,-2.6518,-2.6534,-2.657,-2.6592,-2.6599,-2.6636,-2.6658,-2.6702,-2.6717,-2.671,-2.6783,-2.6807,-2.686,-2.6872,-2.6888,-2.6899,-2.6886,-2.694,-2.6944,-2.6949,-2.6965,-2.6972,-2.6896,-2.6896,-2.6896,-2.6896,0,-2.653,-2.6565,-2.659,-2.6633,-2.6658,-2.6694,-2.6715,-2.6739,-2.6746,-2.6763,-2.6809,-2.6837,-2.6876,-2.689,-2.6897,-2.6945,-2.694,-2.6936,-2.6922,-2.6955,-2.6971,-2.6978,-2.6897,-2.6897,-2.6897,-2.6896,0,0,-2.6571,-2.6622,-2.6631,-2.6651,-2.669,-2.6718,-2.6755,-2.6793,-2.6812,-2.6843,-2.6874,-2.6923,-2.692,-2.6942,-2.6953,-2.6976,-2.7013,-2.6969,-2.697,-2.6976,-2.7067,-2.7069,-2.7076,-2.7015,-2.7016,-2.7017,-2.7064,0,-2.6615,-2.668,-2.6696,-2.6752,-2.6785,-2.6792,-2.6824,-2.6852,-2.6869,-2.6899,-2.6918,-2.6953,-2.6946,-2.6959,-2.6983,-2.7003,-2.7031,-2.7,-2.7043,-2.7045,-2.7034,-2.7084,-2.7087,-2.7129,-2.707,-2.7071,-2.7072,0,-2.6675,-2.6707,-2.6766,-2.6801,-2.6816,-2.6844,-2.688,-2.6909,-2.6941,-2.6952,-2.6977,-2.6985,-2.7023,-2.7008,-2.7061,-2.704,-2.7058,-2.7071,-2.7073,-2.7077,-2.706,-2.7089,-2.7143,-2.715,-2.7082,-2.7081,-2.708,0,-2.6699,-2.6756,-2.6799,-2.6816,-2.6858,-2.6878,-2.6896,-2.6927,-2.6949,-2.6981,-2.6995,-2.7031,-2.705,-2.7078,-2.7095,-2.7083,-2.7147,-2.7133,-2.7156,-2.7156,-2.7169,-2.7168,-2.7226,-2.7182,-2.7182,-2.7182,-2.7182,0,-2.6746,-2.6782,-2.681,-2.6837,-2.6877,-2.6895,-2.6934,-2.6953,-2.698,-2.701,-2.7019,-2.7047,-2.7069,-2.7099,-2.7114,-2.7155,-2.7164,-2.7173,-2.7177,-2.7172,-2.7171,-2.7184,-2.7182,-2.7183,-2.7183,-2.7183,-2.7182,0,-2.6779,-2.68,-2.6847,-2.6883,-2.6893,-2.6921,-2.6952,-2.6978,-2.6995,-2.7033,-2.7043,-2.707,-2.7107,-2.7127,-2.7174,-2.7183,-2.7229,-2.7231,-2.7219,-2.722,-2.7242,-2.7239,-2.731,-2.732,-2.727,-2.727,-2.727,0,-2.6808,-2.6835,-2.6875,-2.6895,-2.6914,-2.6948,-2.697,-2.6989,-2.7011,-2.705,-2.7071,-2.7108,-2.7139,-2.7198,-2.7221,-2.7257,-2.7259,-2.7282,-2.7265,-2.7259,-2.7259,-2.7257,-2.726,-2.7284,-2.7285,-2.7285,-2.7286,0,-2.6856,-2.6865,-2.6897,-2.6932,-2.6959,-2.6988,-2.7017,-2.7033,-2.7056,-2.7082,-2.712,-2.7143,-2.7191,-2.7228,-2.7265,-2.7284,-2.7289,-2.7291,-2.7298,-2.7294,-2.7285,-2.729,-2.7226,-2.7289,-2.7289,-2.7288,-2.7288,-2.7288,-2.6888,-2.6913,-2.6944,-2.6979,-2.7003,-2.7029,-2.7055,-2.7076,-2.7107,-2.7147,-2.7156,-2.7196,-2.7227,-2.7278,-2.7298,-2.7329,-2.7325,-2.7335,-2.7338,-2.734,-2.7341,-2.728,-2.7336,-2.7336,-2.7336,-2.7336,-2.7336,0,-2.6936,-2.6957,-2.6989,-2.7029,-2.7056,-2.7059,-2.709,-2.7113,-2.7148,-2.7177,-2.7207,-2.725,-2.7286,-2.7313,-2.7349,-2.7369,-2.7372,-2.7378,-2.7377,-2.7381,-2.7343,-2.7332,-2.7375,-2.7375,-2.7375,-2.7375,-2.7375,-2.7375,-2.6965,-2.7007,-2.7019,-2.7073,-2.7093,-2.7132,-2.715,-2.7175,-2.7198,-2.7245,-2.7275,-2.7292,-2.732,-2.7359,-2.7392,-2.7399,-2.7411,-2.7417,-2.7424,-2.7388,-2.7384,-2.7379,-2.737,-2.742,-2.742,-2.746,-2.746,-2.746]},{"header":{"parameterUnit":"m.s-1","parameterCategory":1,"la1":30.2991,"la2":30.254,"lo1":-89.0895,"lo2":-89.0444,"dy":0.0017,"dx":0.0017,"nx":28,"ny":28,"refTime":"2024-05-02T09:00:00:Z","depth":0,"parameterNumber":3,"parameterNumberName":"V-component_of_WINDS"},"data":[0,0,0,0,0,0,0,0,0,0,0,0,0,0,0,0,0,0,0,0,0,0,0,0,0,0,0,0,0,0,0,0,0,0,0,0,0,0,0,0,0,0,0,0,0,0,0,0,0,0,0,0,0,0,0,0,0,0,4.9392,4.9393,0,4.9431,4.9431,4.9432,4.9403,4.9402,4.9401,4.94,4.9435,4.9437,4.9439,0,0,0,0,0,0,0,0,0,0,0,0,0,4.9291,4.9293,4.9392,4.9393,4.9393,4.9431,4.9431,4.9432,4.9403,4.9402,4.94,4.9399,4.9434,4.9437,4.9439,0,0,0,0,0,0,0,0,0,0,0,0,0,4.9333,4.9293,4.9392,4.9384,4.9383,4.9431,4.9431,4.9432,4.9404,4.9402,4.94,4.9398,4.9434,4.9437,4.944,4.9497,0,0,4.9449,4.9451,0,0,0,0,0,0,0,0,4.933,4.9336,4.9385,4.9384,4.9384,4.9411,4.9409,4.9454,4.9404,4.9396,4.94,4.9397,4.9428,4.9432,4.9443,4.9498,4.95,4.945,4.9452,4.9453,4.9454,0,0,0,0,0,0,0,4.9327,4.9334,4.9407,4.9385,4.9385,4.9377,4.9381,4.9417,4.9422,4.9396,4.9395,4.94,4.9428,4.944,4.9443,4.95,4.945,4.9452,4.9454,4.9456,4.9605,4.9607,0,0,0,0,0,0,4.9326,4.9332,4.9406,4.9409,4.9352,4.938,4.9385,4.9404,4.9421,4.9422,4.9401,4.9398,4.9435,4.944,4.9445,4.9512,4.9453,4.9456,4.9458,4.9603,4.9605,4.9607,0,0,0,0,0,0,4.9324,4.9333,4.9405,4.937,4.9379,4.9384,4.9406,4.9406,4.9418,4.9425,4.9425,4.9413,4.9434,4.944,4.9484,4.9513,4.9457,4.946,4.96,4.9603,4.9606,4.9648,0,0,0,0,0,0,4.9321,4.9332,4.9354,4.9371,4.9381,4.9445,4.9408,4.9408,4.9424,4.942,4.9436,4.9437,4.9433,4.948,4.9487,4.9517,4.9463,4.9597,4.9602,4.9605,4.9644,4.9653,4.966,0,0,0,0,0,4.9317,4.9364,4.9356,4.9365,4.9409,4.9446,4.9452,4.9448,4.9426,4.9448,4.9453,4.9437,4.9509,4.9484,4.9493,4.9523,4.9596,4.96,4.9605,4.9641,4.9651,4.9659,0,0,0,0,0,0,4.9349,4.9366,4.9357,4.941,4.9427,4.9442,4.9469,4.9458,4.9481,4.9476,4.9469,4.9472,4.9519,4.9525,4.9498,4.958,4.9549,4.9555,4.9573,4.9583,4.959,4.9587,4.9465,0,0,0,0,0,4.9362,4.9393,4.9405,4.9451,4.946,4.9463,4.948,4.9475,4.9492,4.9499,4.9507,4.9523,4.9549,4.9566,4.9591,4.9646,4.9648,4.9671,4.9678,4.9685,4.969,4.972,4.973,4.9623,4.9622,4.9622,0,0,4.9389,4.9402,4.9422,4.9458,4.947,4.9501,4.9469,4.9503,4.9526,4.9503,4.9546,4.9552,4.957,4.962,4.9642,4.9626,4.9721,4.9691,4.9695,4.9697,4.9725,4.9736,4.9745,4.9626,4.9625,4.9625,0,0,4.9455,4.9468,4.9508,4.9522,4.9542,4.9545,4.9554,4.9571,4.9575,4.9618,4.9602,4.9628,4.9674,4.9687,4.9699,4.9772,4.9757,4.978,4.9819,4.9848,4.9856,4.9864,4.9889,4.9899,4.9786,4.9786,4.9786,0,4.9486,4.9533,4.9529,4.9565,4.9581,4.9564,4.9604,4.9617,4.9644,4.9655,4.9638,4.9696,4.9706,4.9759,4.9777,4.9788,4.9798,4.9778,4.9856,4.9863,4.987,4.9894,4.9904,4.9788,4.9788,4.9788,4.9788,0,4.957,4.9603,4.9632,4.9661,4.968,4.9717,4.9719,4.9739,4.9733,4.9737,4.9781,4.9793,4.982,4.9832,4.9826,4.9885,4.9875,4.9857,4.9826,4.9883,4.9906,4.9915,4.9792,4.9791,4.979,4.979,0,0,4.9654,4.9682,4.9693,4.9706,4.9728,4.9753,4.9789,4.9818,4.9835,4.9854,4.9884,4.9924,4.9908,4.9923,4.9918,4.9944,5.0,4.9923,4.9923,4.9936,5.0065,5.0078,5.0089,4.9991,4.9993,4.9995,5.0064,0,4.9721,4.9787,4.9785,4.9845,4.9876,4.9861,4.9893,4.9909,4.9914,4.9939,4.9944,4.9972,4.995,4.9958,4.9983,4.9988,5.0026,4.9983,5.0018,5.002,5.0014,5.0101,5.0114,5.0179,5.0072,5.0074,5.0075,0,4.9807,4.9832,4.9895,4.9914,4.9927,4.9955,4.9982,5.0007,5.0025,5.0026,5.0044,5.0035,5.0072,5.0041,5.009,5.0061,5.0076,5.0081,5.0083,5.0085,5.005,5.0105,5.0199,5.0209,5.0089,5.0088,5.0087,0,4.9863,4.9911,4.9956,4.9967,4.999,5.0011,5.0021,5.0038,5.0055,5.0078,5.0089,5.0115,5.0129,5.0149,5.0147,5.0125,5.0198,5.0166,5.0199,5.0199,5.0214,5.0213,5.0312,5.0225,5.0225,5.0225,5.0224,0,4.9937,4.9976,4.9981,5.0009,5.0052,5.005,5.0093,5.0101,5.0117,5.0145,5.0133,5.0159,5.0156,5.0182,5.0181,5.0223,5.0229,5.0231,5.023,5.0232,5.0231,5.024,5.0235,5.0227,5.0227,5.0226,5.0226,0,5.0006,5.0011,5.0058,5.0077,5.0082,5.0114,5.0129,5.0155,5.0159,5.0195,5.0203,5.0209,5.0239,5.0241,5.0275,5.0274,5.0325,5.0319,5.0319,5.0318,5.035,5.0347,5.0457,5.0471,5.0376,5.0377,5.0378,0,5.0052,5.0083,5.0105,5.0124,5.0136,5.0166,5.0184,5.0183,5.0202,5.0227,5.0249,5.0279,5.0302,5.0352,5.0358,5.0385,5.0379,5.0416,5.0383,5.0384,5.0379,5.0378,5.038,5.0422,5.0423,5.0424,5.0425,0,5.0135,5.0136,5.0164,5.0192,5.0215,5.0237,5.0257,5.0273,5.0275,5.0297,5.0329,5.0347,5.0383,5.0413,5.0439,5.0448,5.0437,5.0436,5.0445,5.0446,5.0445,5.0446,5.0336,5.0433,5.0432,5.0431,5.0431,5.0431,5.0194,5.022,5.0241,5.0272,5.0288,5.0307,5.0333,5.0341,5.0368,5.0398,5.0396,5.0431,5.0449,5.0483,5.0495,5.0521,5.0509,5.0522,5.0525,5.0528,5.0531,5.0441,5.0526,5.0526,5.0526,5.0526,5.0525,0,5.0275,5.0288,5.0317,5.0347,5.0371,5.0361,5.0383,5.0404,5.0435,5.0454,5.0478,5.0515,5.0543,5.0553,5.0581,5.0601,5.0596,5.0608,5.0606,5.0608,5.0541,5.0531,5.0611,5.0611,5.0611,5.0611,5.0611,5.0611,5.032,5.0365,5.0369,5.0421,5.0433,5.0469,5.0483,5.0501,5.0515,5.0558,5.0582,5.0589,5.0604,5.0633,5.0658,5.0661,5.0671,5.0685,5.0685,5.0622,5.0613,5.0605,5.0595,5.0687,5.0687,5.0749,5.075,5.075]}]]